Albany, NY

10:09 PM EDT on April 25, 2018 (GMT -0400)
Albany International

Weather History for KALB - March, 2012

Change the Weather History Date:

Friday, March 30, 2012

  Actual Average Record
Temperature  
Mean Temperature 41 °F 41 °F  
Max Temperature 50 °F 51 °F 86 °F (1986)
Min Temperature 31 °F 31 °F 7 °F (1970)
Degree Days  
Heating Degree Days 24 24  
Month to date heating degree days 561 904  
Since 1 July heating degree days 4640 5848  
Cooling Degree Days 0 0  
Month to date cooling degree days 1 0  
Year to date cooling degree days 1 0  
Moisture  
Dew Point 14 °F    
Average Humidity 37    
Maximum Humidity 58    
Minimum Humidity 16    
Precipitation  
Precipitation T in 0.10 in 1.56 in (1940)
Month to date precipitation 1.54 3.10  
Year to date precipitation 4.80 7.89  
Snow  
Snow 0.00 in 0.20 in 4.00 in (1911)
Month to date snowfall 5.1 10.8  
Since 1 July snowfall 23.3 57.7  
Snow Depth 0.00 in    
Sea Level Pressure  
Sea Level Pressure 30.03 in    
Wind  
Wind Speed 7 mph (NW)    
Max Wind Speed 20 mph    
Max Gust Speed 23 mph    
Visibility 10 miles    
Events      
T = Trace of Precipitation, MM = Missing Value Source: NWS Daily Summary

Daily Weather History Graph

Daily Weather History Graph

Search for Another Location

Airport or City:

Astronomy

Mar. 30, 2012 Rise Set
Actual Time 6:40 AM EDT 7:19 PM EDT
Civil Twilight 6:11 AM EDT 7:48 PM EDT
Nautical Twilight 5:37 AM EDT 8:21 PM EDT
Astronomical Twilight 5:03 AM EDT 8:56 PM EDT
Moon 11:36 AM EDT (3/30) 2:00 AM EDT (3/30)
Length of Visible Light 13h 36m
Length of Day
12h 39m
Waxing Crescent, 49% of the Moon is Illuminated
Mar 30
Waxing Crescent
Mar 30
First Quarter
Apr 6
Full
Apr 13
Last Quarter
Apr 21
New

Hourly Weather History & Observations

Time (EDT) Temp. Windchill Dew Point Humidity Pressure Visibility Wind Dir Wind Speed Gust Speed Precip Events Conditions
12:51 AM 39.0 °F 32.3 °F 24.1 °F 55% 30.01 in 10.0 mi NW 10.4 mph - N/A   Overcast
1:51 AM 37.0 °F 28.9 °F 19.0 °F 48% 30.01 in 10.0 mi NW 12.7 mph - N/A   Mostly Cloudy
2:51 AM 37.0 °F 31.6 °F 19.0 °F 48% 30.01 in 10.0 mi WNW 6.9 mph - N/A   Mostly Cloudy
3:51 AM 35.1 °F 28.6 °F 19.0 °F 52% 30.02 in 10.0 mi WNW 8.1 mph - N/A   Mostly Cloudy
4:51 AM 33.1 °F 24.9 °F 17.1 °F 52% 30.03 in 10.0 mi West 10.4 mph - N/A   Scattered Clouds
5:51 AM 32.0 °F 23.6 °F 18.0 °F 56% 30.05 in 10.0 mi WNW 10.4 mph - N/A   Partly Cloudy
6:51 AM 30.9 °F 22.8 °F 17.1 °F 57% 30.06 in 10.0 mi WNW 9.2 mph - N/A   Partly Cloudy
7:51 AM 33.1 °F 24.9 °F 17.1 °F 52% 30.09 in 10.0 mi NW 10.4 mph - N/A   Clear
8:51 AM 35.1 °F 25.9 °F 16.0 °F 46% 30.10 in 10.0 mi NW 13.8 mph 20.7 mph N/A   Clear
9:51 AM 37.0 °F 28.1 °F 17.1 °F 44% 30.12 in 10.0 mi WNW 15.0 mph 21.9 mph N/A   Clear
10:51 AM 39.9 °F 32.1 °F 12.9 °F 33% 30.11 in 10.0 mi NW 13.8 mph 18.4 mph N/A   Clear
11:51 AM 43.0 °F 35.7 °F 10.9 °F 27% 30.09 in 10.0 mi NNW 15.0 mph 21.9 mph N/A   Scattered Clouds
12:51 PM 45.0 °F 40.1 °F 10.9 °F 25% 30.07 in 10.0 mi WNW 9.2 mph 17.3 mph N/A   Partly Cloudy
1:51 PM 46.0 °F - 9.0 °F 22% 30.04 in 10.0 mi Calm Calm - N/A   Partly Cloudy
2:51 PM 46.9 °F - 8.1 °F 21% 30.01 in 10.0 mi Calm Calm - N/A   Partly Cloudy
3:51 PM 48.9 °F - 8.1 °F 19% 30.00 in 10.0 mi Calm Calm - N/A   Scattered Clouds
4:51 PM 50.0 °F - 6.1 °F 17% 29.99 in 10.0 mi North 5.8 mph - N/A   Mostly Cloudy
5:51 PM 46.9 °F - 10.0 °F 22% 29.98 in 10.0 mi East 3.5 mph - N/A   Overcast
6:51 PM 46.9 °F - 9.0 °F 21% 29.99 in 10.0 mi Calm Calm - N/A   Overcast
7:51 PM 46.0 °F 44.8 °F 10.0 °F 23% 29.99 in 10.0 mi East 3.5 mph - N/A   Overcast
8:51 PM 46.0 °F - 12.0 °F 25% 29.98 in 10.0 mi Calm Calm - N/A   Overcast
9:51 PM 44.1 °F 41.5 °F 18.0 °F 35% 29.98 in 10.0 mi ENE 4.6 mph - N/A   Overcast
10:51 PM 43.0 °F - 17.1 °F 35% 30.01 in 10.0 mi Calm Calm - N/A   Overcast
11:51 PM 42.1 °F 38.4 °F 18.0 °F 38% 30.01 in 10.0 mi North 5.8 mph - N/A   Overcast